Tracking 31027 objects as of 19-Jul-2025
HD Live streaming from Space Station
objects crossing your sky now

COSMOS 1275 DEB

Track COSMOS 1275 DEB now!
10-day predictions


NORAD ID: 39936
Int'l Code: 1981-053NC
Perigee: 889.8 km
Apogee: 981.1 km
Inclination: 83.1 °
Period: 103.6 minutes
Semi major axis: 7306 km
RCS: 0.0039 m2 (small)
Launch date: April 25, 1981
Source: Commonwealth of Independent States (former USSR) (CIS)
Launch site: PLESETSK MISSILE AND SPACE COMPLEX (PKMTR)

Note: This is SATELLITE DEBRIS
Your satellite tracking list
Your tracking list is empty




NASA's NSSDC Master Catalog

Two Line Element Set (TLE):
1 39936U 81053MW  25191.46487137  .00000978  00000-0  76713-3 0  9996
2 39936  83.1479  91.9565 0062427  87.3965 273.4344 13.90089367551169
Source of the keplerian elements: AFSPC